Wind_Speed
9 8 7 7 5 6 4 3 2 2 2 4 3 2 5 4 1 1 4 2 2 6 6 4 4 4 5 5 6 6 6 8 8 5 5 4 4 6 3 2 4 8 10 15 13 16 19 16 16 14 13 12 11 10 10 10 8 8 7 7 6 7 9 8 8 8 8 8 8 8 8 7 8 8 8 8 8 9 10 10 10 10 11 11 12 13 14 14 14 14 14 13 12 11 10 9 8
8 7 6 6 4 5 1 1 2 2 2 4 3 4 5 3 1 3 6 5 5 6 4 4 3 3 4 5 5 2 5 9 9 6 7 5 7 11 3 3 5 8 10 14 13 14 16 15 17 15 14 13 12 11 11 10 9 8 8 7 5 7 9 8 8 8 8 8 7 7 8 7 7 7 7 7 7 8 8 9 10 10 10 10 10 11 12 12 12 12 12 13 13 12 10 7 6
8 7 5 5 4 4 1 2 3 2 2 4 5 4 3 3 5 6 7 7 7 4 2 2 1 1 5 4 2 2 6 8 9 5 6 8 4 11 8 3 3 7 9 13 13 13 15 15 17 15 14 13 12 12 11 10 9 9 8 7 6 7 9 8 8 8 8 7 7 7 7 6 6 7 7 7 7 7 7 8 9 9 9 10 10 10 10 10 11 11 13 15 16 16 12 8 6
8 7 5 5 3 3 3 3 3 2 1 3 4 4 3 5 7 7 7 6 5 3 2 2 0 2 4 2 3 2 6 7 11 9 4 9 6 12 8 3 2 5 9 12 12 12 14 14 16 15 14 13 13 12 11 10 9 9 8 6 7 8 8 8 8 7 7 7 6 7 7 6 6 6 6 7 7 6 6 7 8 8 9 9 10 9 9 8 9 11 15 18 19 19 15 11 8
6 5 5 4 3 1 3 2 2 2 3 3 4 6 4 6 7 7 7 6 4 3 3 4 1 3 1 5 5 3 6 4 9 13 6 6 10 12 5 2 3 3 8 12 12 11 12 13 15 16 15 14 13 12 11 10 9 8 7 5 6 8 8 8 8 8 8 7 6 7 7 6 6 5 5 6 6 6 5 6 7 8 8 9 9 10 9 8 9 11 16 18 19 20 17 13 11
5 5 3 3 2 1 3 2 1 2 5 5 5 7 5 6 6 6 6 6 4 3 3 3 3 1 2 6 7 6 8 6 4 11 9 9 11 7 5 4 4 2 7 11 11 9 11 12 13 15 15 14 12 12 11 10 9 8 6 4 4 7 7 8 8 7 7 6 7 7 6 6 6 6 5 5 6 5 4 5 8 8 8 8 9 10 9 8 9 12 16 18 19 19 17 14 12
5 4 2 3 1 1 4 1 1 4 5 6 6 7 7 6 4 3 5 5 4 3 2 3 4 3 2 4 6 9 10 8 4 7 8 10 9 3 7 6 4 4 7 9 10 8 9 10 13 16 14 14 12 12 12 9 9 8 6 5 4 5 6 8 8 7 8 7 7 7 6 5 6 6 5 5 5 4 4 5 8 8 8 8 8 10 8 7 10 13 16 18 19 19 16 14 13
4 3 1 2 2 2 4 1 3 4 4 5 6 6 7 6 2 1 3 2 2 3 2 3 4 4 4 2 3 8 11 11 6 7 9 9 8 4 7 6 6 6 7 8 9 8 8 8 12 16 15 13 12 12 11 9 9 8 6 5 5 4 5 8 8 7 7 7 7 6 5 4 4 5 5 5 5 5 4 6 8 8 8 8 7 8 8 8 12 15 17 18 19 18 16 14 12
3 2 1 3 2 2 2 2 3 4 5 4 5 6 6 4 1 1 2 3 3 2 3 4 5 4 3 4 6 8 9 10 6 9 11 10 8 4 6 6 7 7 6 7 8 7 6 7 13 16 15 13 12 12 10 9 9 7 6 5 5 4 4 7 8 7 7 7 7 6 5 4 3 4 4 5 6 5 5 6 8 8 7 6 5 7 7 9 13 15 17 18 18 17 15 13 12
3 1 1 3 2 2 2 2 3 4 6 4 5 6 5 3 1 1 1 3 3 1 4 2 4 3 1 4 7 6 8 9 7 11 12 11 9 5 4 6 7 7 5 6 7 7 5 7 14 17 14 14 12 12 11 9 9 8 7 6 5 5 5 7 7 7 7 6 7 6 5 4 3 3 4 5 5 5 6 7 8 7 6 5 5 7 8 10 13 15 16 17 17 16 14 12 11
2 1 1 3 3 3 2 3 4 4 6 5 5 5 4 2 1 1 1 2 3 1 5 1 2 4 2 3 5 6 9 13 11 12 11 9 9 6 3 4 6 7 6 7 7 6 5 5 13 18 15 14 13 12 11 10 9 9 8 7 6 6 6 7 7 8 8 8 7 6 5 3 3 3 3 4 4 5 7 7 7 6 5 5 5 6 8 11 13 15 15 15 16 16 14 11 10
2 1 2 4 2 1 2 2 4 5 6 6 6 5 3 2 2 1 1 1 2 2 5 3 3 4 5 3 4 7 11 16 13 11 10 7 7 6 5 3 4 5 5 9 7 6 5 3 10 17 16 15 14 13 12 11 10 9 9 8 7 7 7 7 8 8 8 8 8 7 6 3 2 2 3 3 4 5 7 7 6 6 5 5 4 6 9 11 14 14 14 15 16 15 14 11 10
2 1 3 3 1 1 1 1 4 5 5 5 5 5 1 2 2 1 2 1 1 0 5 5 4 3 5 2 5 7 10 16 12 10 8 6 5 5 5 3 3 3 3 6 6 4 6 4 6 12 15 16 15 14 13 12 11 10 9 8 7 7 7 7 8 8 8 8 8 8 7 5 3 3 4 4 4 6 7 7 6 6 5 3 3 6 8 11 13 13 14 16 15 15 14 11 10
2 2 4 1 1 1 0 1 4 4 4 7 4 4 2 0 2 2 3 3 1 4 5 3 4 4 4 1 4 5 8 14 13 9 6 5 4 4 5 4 3 3 3 4 4 4 5 5 6 9 12 14 15 14 14 13 13 12 10 8 8 7 8 7 7 7 7 8 8 9 9 7 5 4 4 4 4 6 6 6 6 6 5 1 2 5 7 10 12 12 13 16 16 15 13 11 10
3 1 3 1 1 2 2 1 3 5 4 9 3 2 3 2 2 1 2 4 3 6 2 1 2 4 2 2 2 4 11 14 13 9 5 3 4 4 5 5 4 4 3 3 4 4 4 5 6 8 9 11 13 13 12 13 14 14 11 9 9 8 8 8 7 7 6 7 8 9 9 9 8 5 4 5 6 6 6 6 6 6 5 1 2 4 6 8 10 11 12 14 15 15 14 12 10
3 2 3 2 2 2 3 2 2 4 4 8 3 1 3 4 3 1 3 4 2 3 2 1 1 3 5 5 5 7 11 13 11 7 3 1 2 3 5 5 4 5 5 4 3 2 3 4 5 7 8 10 11 12 11 11 14 14 14 12 11 10 9 9 8 7 7 7 7 8 9 8 9 8 5 5 6 7 7 7 7 6 4 2 2 3 5 7 9 9 10 12 14 15 14 12 11
2 2 3 3 2 2 3 3 2 2 7 7 4 1 3 4 4 1 2 4 5 0 1 4 6 5 6 5 6 8 9 11 10 6 3 2 1 3 4 4 4 4 5 4 3 1 1 3 4 5 7 9 10 11 11 11 12 12 14 14 13 11 10 10 9 9 8 8 8 8 8 8 8 8 7 6 6 7 7 8 7 6 5 5 4 4 5 6 7 8 9 10 12 13 14 13 12
2 2 3 2 1 2 2 2 2 3 6 6 4 2 3 1 1 2 2 6 5 3 3 7 9 8 8 7 6 7 8 10 10 8 7 5 4 3 4 4 4 4 4 3 3 3 1 1 4 5 6 8 9 10 10 10 11 10 11 13 13 12 10 10 10 10 9 9 9 8 8 7 8 8 7 6 6 7 9 9 8 7 6 5 4 4 6 5 7 8 8 10 11 12 14 15 13
2 2 3 0 3 4 3 3 4 2 3 4 4 2 3 3 3 3 4 4 4 5 4 8 8 9 8 8 7 8 9 10 11 10 9 9 7 6 5 5 5 5 5 4 4 4 2 1 2 5 6 7 9 10 10 9 10 9 9 11 12 12 12 11 10 10 10 10 9 8 7 7 8 8 7 6 6 6 9 9 7 6 5 5 4 5 5 5 7 9 9 10 11 12 13 13 13
1 2 3 3 4 3 3 3 4 4 3 1 2 3 2 1 2 4 5 7 7 3 3 3 4 6 6 7 8 8 8 9 10 10 10 10 9 8 7 7 7 7 7 6 5 5 4 3 3 4 6 8 9 9 9 9 9 9 9 10 11 11 11 11 10 10 9 9 9 8 7 7 7 7 7 7 6 5 7 9 8 7 7 5 3 3 2 4 6 8 9 10 11 11 10 10 11
0 2 2 5 2 2 4 3 4 4 2 2 1 0 3 2 1 4 4 8 5 3 7 5 4 6 6 6 7 7 8 9 9 10 10 11 11 10 9 8 8 8 8 7 6 7 6 5 4 5 5 7 9 8 9 8 8 9 9 9 9 9 9 10 10 9 9 9 9 8 8 8 7 6 6 6 6 5 7 8 9 9 8 6 3 2 1 3 4 6 9 9 8 9 9 10 10
2 0 3 4 1 0 5 4 4 3 1 1 2 3 1 1 3 4 5 7 1 5 5 5 5 5 5 5 5 6 7 8 10 11 11 11 12 11 10 9 9 9 8 8 8 8 8 7 6 6 7 6 9 8 7 8 7 7 8 8 9 8 8 9 8 8 10 10 9 10 8 8 9 8 7 7 6 6 7 8 9 10 9 6 4 3 2 1 3 4 6 6 7 8 9 9 10
3 2 3 2 1 1 3 4 4 2 2 3 3 1 1 4 6 4 4 3 4 4 4 4 4 4 3 4 4 6 6 8 9 11 11 11 12 12 11 10 10 10 9 10 10 9 9 8 8 5 8 7 8 8 7 7 6 7 6 7 8 7 7 7 7 6 8 7 7 9 9 8 9 9 9 8 7 7 8 8 8 9 8 6 5 5 3 2 2 3 3 4 6 8 9 9 9
4 1 3 2 0 2 0 3 4 4 5 4 1 1 5 8 4 3 3 2 5 4 4 4 3 3 3 4 5 6 6 7 8 9 9 9 10 11 11 10 10 10 10 11 11 9 9 9 9 5 5 7 7 9 8 7 6 6 5 6 5 6 6 5 5 4 4 3 3 6 8 8 8 8 9 9 7 7 8 7 7 7 6 5 4 4 2 1 2 3 3 3 5 6 8 7 6
6 3 3 2 1 3 2 2 4 6 6 4 3 6 8 6 2 3 4 4 4 4 4 3 3 3 4 5 6 6 6 8 8 8 8 7 8 9 10 10 10 10 11 12 11 9 9 9 8 4 3 6 6 8 8 8 7 5 5 6 5 6 6 4 4 4 4 4 3 4 5 5 6 7 7 7 7 7 8 8 6 5 6 5 2 3 3 3 3 3 2 3 4 4 5 5 4
2 2 1 2 3 4 4 5 6 5 5 4 5 9 6 4 3 4 4 5 4 4 3 2 2 3 4 5 6 6 7 8 8 9 8 8 9 10 11 11 11 11 12 11 11 10 10 9 7 4 1 5 6 8 8 8 7 5 6 7 7 8 7 6 6 7 8 6 4 2 2 1 4 9 9 8 8 7 7 8 7 6 6 5 4 6 6 5 4 3 2 2 3 3 3 4 3
2 2 3 6 7 5 5 6 6 4 5 5 7 10 3 6 5 4 5 6 5 4 4 2 2 3 4 4 5 6 7 7 8 7 8 8 9 10 11 11 12 12 12 11 12 11 10 8 5 4 3 5 6 7 8 9 9 9 9 7 8 9 8 7 7 8 7 6 5 3 2 2 1 5 8 9 9 7 6 6 6 6 6 6 7 7 7 7 5 5 4 3 3 3 2 2 2
2 3 6 8 8 7 8 9 6 4 4 5 7 7 3 6 5 3 7 8 6 5 5 3 2 3 4 4 4 4 5 5 5 6 7 8 7 9 10 11 12 12 12 12 13 11 10 9 6 5 5 6 7 9 10 10 11 12 13 13 12 12 9 8 8 8 6 4 4 5 5 5 5 2 3 5 6 6 6 5 6 9 9 9 9 7 6 5 5 4 4 4 3 2 1 2 2
2 3 7 7 8 10 10 7 3 4 3 3 5 5 6 9 6 6 9 7 6 5 5 4 3 3 3 3 3 3 4 4 5 6 7 7 7 8 9 11 11 11 11 12 13 11 9 10 8 7 7 8 10 12 12 13 14 13 14 15 15 15 13 11 10 9 8 6 6 6 7 7 6 6 6 4 5 4 4 4 6 8 8 7 7 6 4 4 3 3 3 2 2 1 1 3 4
3 4 5 6 9 7 6 6 4 4 3 5 5 4 5 9 8 8 8 7 7 7 5 5 3 3 3 3 3 4 5 5 6 7 7 7 7 8 9 10 10 10 10 11 12 13 11 12 11 11 12 13 13 15 17 19 20 17 15 15 15 16 15 14 13 12 12 11 10 8 7 8 7 8 9 9 9 9 9 8 8 8 8 7 7 6 5 4 3 3 2 1 0 1 2 3 4
4 4 4 5 7 2 7 7 6 5 4 6 6 5 3 8 8 7 7 7 8 7 6 5 4 3 2 3 2 3 4 5 6 7 7 7 7 7 8 9 9 9 10 10 12 14 13 14 15 16 17 18 18 20 20 21 23 21 19 19 18 18 18 17 16 14 14 14 12 10 9 10 10 10 10 11 11 12 13 13 12 11 10 9 8 8 7 6 5 3 2 0 2 2 3 4 5
5 4 5 5 4 2 7 7 5 3 3 7 7 5 2 8 9 7 6 7 8 7 6 5 4 4 3 3 3 3 4 4 5 7 7 6 6 7 7 7 8 8 10 11 13 15 16 18 18 19 20 20 21 23 23 23 24 23 22 23 22 22 22 22 21 19 18 17 15 13 12 13 13 11 11 12 13 13 13 14 14 12 10 9 8 8 7 7 6 3 2 2 4 4 4 5 6
5 5 6 5 5 5 4 6 4 2 3 7 9 6 2 7 9 7 6 8 9 7 5 6 5 4 3 3 3 2 3 4 4 6 7 6 6 6 6 6 6 8 9 10 14 16 18 21 21 21 23 23 24 25 25 25 25 25 26 26 26 26 26 26 26 24 24 22 20 18 17 16 15 14 13 15 16 15 15 16 15 13 12 11 10 9 8 8 8 7 6 6 7 7 7 8 8
5 6 6 7 8 7 4 4 5 4 4 6 8 8 6 5 11 8 7 7 8 7 6 6 5 4 3 3 3 2 2 2 3 5 6 5 5 5 5 5 7 8 9 11 14 16 19 22 23 24 25 27 28 28 27 27 28 29 29 28 28 28 27 27 26 26 26 24 23 22 20 20 19 18 17 18 18 19 19 18 18 16 15 14 13 13 12 11 11 10 9 9 9 9 9 10 11
7 5 5 7 7 8 8 3 6 7 6 6 8 9 9 6 11 8 8 8 7 7 6 5 5 5 4 3 3 3 2 2 3 4 5 4 4 5 5 5 7 9 11 12 14 16 19 22 25 25 26 28 30 30 29 29 29 29 29 29 28 27 27 26 25 25 24 24 23 21 20 21 21 21 20 19 19 20 20 19 18 17 16 16 16 15 15 13 12 11 11 10 8 10 11 10 13
9 6 5 7 6 7 6 1 5 4 5 8 9 10 11 8 9 9 8 7 7 6 5 5 5 5 4 4 4 3 3 3 3 3 4 3 3 4 4 4 6 9 10 12 14 17 20 22 24 24 23 23 25 27 27 28 29 29 29 29 28 28 27 26 25 24 24 23 22 20 19 19 19 19 20 20 19 19 19 19 19 18 17 17 17 17 16 15 13 11 10 11 8 9 13 13 15
7 7 7 9 8 8 5 3 6 2 4 8 10 11 13 12 8 10 8 7 7 7 7 7 6 5 5 4 4 4 3 3 3 2 2 3 3 3 3 4 4 6 8 10 14 17 19 20 21 21 19 17 18 22 23 23 25 25 26 27 27 27 27 26 25 24 23 23 22 21 21 20 18 18 18 19 19 19 19 18 18 18 18 18 19 18 17 16 14 10 8 10 9 10 13 16 18
8 8 8 8 8 10 7 2 5 3 3 8 11 11 13 14 8 10 9 8 9 9 9 8 7 6 4 5 5 4 3 3 3 3 3 3 3 3 3 4 4 5 7 10 13 15 17 17 17 18 17 16 17 20 21 21 22 22 23 25 25 26 26 26 26 25 25 24 23 23 23 22 21 20 20 20 21 21 20 20 19 18 17 18 19 19 19 18 18 15 12 10 10 11 13 17 21
9 7 7 8 7 8 5 4 5 3 3 6 9 9 11 11 6 10 9 9 7 6 5 5 6 6 5 5 5 5 4 4 4 4 4 4 4 3 3 4 4 5 6 9 10 12 12 12 14 16 17 18 19 20 22 23 23 23 24 25 26 27 28 27 27 26 25 25 25 25 24 24 23 23 22 22 22 23 22 22 22 21 19 18 20 22 23 23 22 21 18 14 11 11 12 16 21
8 7 7 7 6 7 5 3 4 4 4 4 5 6 10 8 6 8 7 6 5 3 2 2 3 4 5 5 4 5 5 5 5 4 5 5 4 4 4 4 4 4 6 7 8 8 9 10 12 15 17 19 20 20 21 22 23 25 28 29 29 29 28 27 27 27 26 26 26 26 26 25 25 26 26 25 25 26 25 25 25 24 22 20 22 24 26 26 25 24 22 19 16 13 13 15 18
9 10 9 8 8 9 7 2 3 4 6 5 5 7 9 10 11 8 6 5 5 5 5 5 5 4 3 4 4 4 4 5 5 5 5 5 5 5 4 4 4 5 6 7 8 7 9 11 13 15 17 19 20 21 22 24 27 28 28 26 24 23 21 21 22 23 24 26 27 27 28 27 28 28 28 28 28 28 27 27 27 26 25 24 23 25 26 26 26 25 23 22 20 16 13 14 15
9 10 12 12 12 11 10 4 1 5 6 6 6 6 5 7 12 10 7 6 7 7 7 8 7 7 5 5 6 5 4 4 4 5 5 5 5 6 5 5 5 6 7 8 8 8 9 11 12 14 17 19 20 20 19 21 22 20 18 17 15 16 16 16 17 18 20 23 26 28 28 28 28 28 28 28 28 27 27 27 27 27 27 26 24 24 24 25 25 25 24 23 21 17 14 14 15
7 4 6 11 12 12 11 7 3 5 4 3 4 7 4 2 7 8 7 8 9 8 8 9 8 8 8 7 6 7 6 5 4 5 6 6 6 6 6 5 5 6 7 7 8 9 11 12 13 15 16 18 18 14 11 11 13 13 14 15 15 16 17 16 16 17 18 20 24 27 28 27 27 27 27 26 26 26 26 25 25 26 26 25 24 24 24 23 23 23 23 21 20 19 16 13 14
4 2 1 5 8 10 10 8 6 5 4 1 5 6 6 5 4 7 8 8 9 9 10 10 10 9 9 8 7 8 7 7 6 6 7 7 6 7 7 6 6 6 7 8 9 10 11 13 15 17 17 17 16 13 11 11 15 18 19 20 19 18 19 18 17 18 18 19 21 23 25 26 26 26 25 25 25 24 24 24 23 24 24 23 23 23 22 22 21 21 21 20 19 19 17 14 12
2 4 3 1 2 5 6 6 6 5 4 4 7 6 5 7 4 6 6 7 9 11 13 12 12 11 11 10 9 9 8 7 7 7 7 8 7 6 7 7 6 7 7 8 10 11 12 15 16 17 16 16 15 15 17 19 22 23 21 22 22 19 19 19 18 18 17 18 18 19 20 22 23 24 23 23 23 22 22 22 22 22 22 22 21 21 21 20 20 20 20 20 18 17 17 16 13
2 6 5 4 2 1 3 5 5 4 5 7 8 9 6 7 5 6 5 5 9 10 11 12 13 12 11 10 10 10 9 7 7 8 8 8 8 7 7 7 7 7 8 9 10 11 13 14 15 15 16 15 16 18 21 23 24 24 22 21 21 19 18 17 17 16 16 16 17 16 16 17 19 21 21 21 21 21 20 20 20 20 20 19 19 19 19 19 19 19 18 18 18 16 16 15 14
7 7 5 4 3 2 3 4 3 5 8 9 11 13 9 7 5 7 5 3 6 7 9 11 12 13 12 11 11 10 9 8 7 8 9 8 8 7 7 8 8 8 8 9 10 11 11 12 14 15 16 17 19 21 22 24 24 25 23 20 20 19 17 17 16 16 15 15 15 15 15 15 16 18 19 19 19 18 18 18 18 18 18 17 18 17 17 18 18 17 17 17 17 17 16 14 15
5 5 4 3 3 3 4 4 4 7 9 6 7 10 11 9 5 5 5 5 4 5 9 13 15 14 13 11 11 11 9 9 8 7 8 9 8 8 7 8 9 8 9 9 10 11 11 12 15 17 18 19 21 22 23 25 24 23 22 20 19 18 17 17 17 16 14 14 14 13 13 13 14 16 17 17 17 17 16 16 16 16 16 16 16 16 15 15 16 16 16 16 17 17 16 15 15
5 5 6 5 4 3 5 6 6 8 6 2 3 4 7 9 8 6 5 7 6 4 4 12 16 14 14 13 11 11 9 9 9 8 8 9 9 9 9 10 10 9 10 10 10 11 11 12 16 18 20 21 23 23 25 25 23 21 21 21 20 20 19 18 17 16 14 14 14 13 13 13 14 15 16 15 15 15 14 14 14 14 14 14 14 14 14 14 14 15 16 16 16 16 16 16 15
9 9 8 7 6 5 7 7 7 8 3 2 3 4 4 6 7 9 5 7 6 6 5 6 14 15 14 14 12 11 10 9 9 8 8 8 10 11 11 11 11 10 11 11 11 11 12 13 16 20 21 22 24 24 23 23 21 21 23 23 23 22 21 19 17 17 16 15 15 14 13 13 14 14 14 14 13 13 13 13 13 13 13 13 13 13 13 14 14 14 15 15 16 16 16 15 15
10 9 8 8 7 6 7 6 7 6 2 2 3 3 5 4 2 1 4 7 6 6 5 4 10 13 12 12 12 11 11 10 8 8 9 10 12 12 12 12 11 11 12 11 11 12 13 14 18 22 22 21 22 22 22 23 23 23 24 23 23 23 22 20 19 19 18 17 16 15 14 13 13 14 13 13 12 12 12 12 12 12 12 12 12 12 13 13 13 14 14 15 15 16 16 15 14
8 7 8 9 6 5 4 1 2 2 0 2 5 4 4 3 2 3 4 5 6 6 5 6 9 12 12 11 11 11 10 10 9 9 9 11 13 13 12 12 12 12 12 12 12 12 14 15 18 20 21 20 21 22 23 24 25 24 23 23 23 23 22 21 20 20 19 18 17 16 15 14 13 13 13 12 12 11 11 11 11 11 11 12 12 12 13 13 13 14 13 14 15 15 15 15 14
5 7 8 5 1 2 3 1 1 1 5 4 6 5 4 2 2 4 5 5 6 7 6 8 10 12 12 10 10 11 11 11 10 10 10 12 14 13 13 13 13 13 13 13 13 13 15 17 18 19 19 20 21 23 24 25 25 24 23 23 23 22 22 21 20 19 18 18 16 15 14 13 12 12 11 11 10 10 9 9 10 11 11 11 12 12 13 13 13 13 14 14 15 16 15 14 13
5 6 6 4 2 3 3 4 2 3 7 4 6 8 7 5 4 4 6 6 7 7 7 9 9 11 11 10 11 11 11 11 11 11 11 13 15 15 14 13 13 14 14 14 14 14 15 16 19 21 21 22 23 25 25 25 25 24 23 22 22 21 21 20 20 18 17 16 15 14 12 12 11 10 10 10 10 9 9 9 10 10 11 11 11 11 12 12 12 13 13 13 14 15 15 14 13
1 2 2 3 3 6 6 5 5 5 7 5 5 8 8 8 6 6 9 9 10 10 9 10 11 12 11 11 12 13 12 11 11 11 11 13 15 16 15 15 15 15 15 15 15 15 16 16 18 20 21 23 26 26 25 23 24 24 22 22 22 21 21 20 18 17 15 14 13 12 11 11 10 10 9 9 9 8 8 9 9 9 9 9 10 10 11 11 12 12 11 11 13 14 15 14 13
1 3 3 2 2 5 6 6 4 5 6 6 4 5 6 8 8 12 14 12 11 12 10 10 12 13 12 12 13 13 13 12 12 12 11 13 16 16 16 17 16 16 16 15 16 16 16 17 18 19 21 23 24 25 24 23 24 24 23 23 22 21 20 19 17 15 14 13 12 11 11 10 9 9 8 8 8 7 7 8 8 8 8 9 10 10 11 11 11 11 11 11 13 14 14 14 13
7 6 7 6 3 1 3 5 4 4 5 6 6 5 3 2 5 12 16 14 12 12 11 11 12 12 13 13 13 13 13 12 12 12 12 14 17 17 17 17 16 16 16 15 17 18 17 17 18 19 21 23 23 23 23 24 25 25 24 23 22 20 19 17 16 14 13 12 11 10 10 9 8 8 7 7 7 7 7 7 7 8 8 9 9 9 10 11 10 11 11 12 13 14 14 14 14
8 9 9 9 7 4 4 6 5 2 4 4 5 7 2 2 2 3 8 9 10 11 11 10 11 13 13 12 13 13 13 13 13 12 12 14 17 17 17 17 16 16 16 16 18 18 18 18 19 20 22 23 23 23 23 25 26 25 24 23 21 19 18 16 14 13 12 11 10 9 8 8 7 7 7 7 7 7 7 7 8 8 8 9 9 9 10 10 10 11 11 12 14 14 15 15 16
Wind_Direction
350 338 338 333 320 297 270 255 237 190 257 97 90 125 85 50 84 125 104 85 112 66 24 18 10 341 321 326 349 6 20 18 19 17 58 82 77 57 137 80 77 136 150 157 165 179 174 169 171 177 177 172 172 171 168 165 162 153 141 134 122 124 128 130 129 126 125 124 123 123 119 114 114 115 111 107 113 112 109 108 103 97 91 92 93 93 92 88 86 79 69 58 48 39 34 31 29
343 330 322 319 293 280 291 225 260 154 174 113 83 65 94 125 136 64 60 46 57 48 12 5 354 349 308 288 301 301 55 44 40 57 77 97 106 46 40 148 81 134 151 157 162 174 176 177 176 177 179 174 174 174 169 166 163 157 145 136 120 126 132 132 133 128 129 128 125 128 123 117 115 119 117 113 117 116 115 115 109 104 98 94 91 90 89 88 86 74 57 41 30 23 20 16 8
349 342 319 299 256 253 263 226 260 181 158 107 91 86 120 124 78 61 52 41 47 28 359 342 290 353 283 234 302 331 77 64 40 53 79 63 89 21 3 188 106 134 154 160 160 167 176 186 181 178 182 178 176 176 172 171 169 161 149 135 123 134 137 137 140 134 134 131 127 130 127 121 118 122 123 122 122 122 124 121 115 109 106 100 91 85 81 82 79 58 36 26 21 17 14 12 4
353 343 324 297 242 220 245 236 275 282 117 101 109 113 106 84 77 67 59 45 43 13 350 325 231 56 317 17 25 9 68 68 45 26 60 53 14 349 344 205 100 131 159 163 162 165 179 192 184 180 184 182 179 178 175 175 173 165 154 136 131 142 143 144 146 140 138 134 134 135 132 125 126 129 127 132 130 132 131 122 117 111 107 99 90 77 71 74 63 39 25 20 17 12 10 10 7
343 324 323 295 259 246 272 263 285 311 35 66 116 119 101 86 84 74 71 62 57 21 349 325 29 100 17 28 7 351 22 24 55 32 23 29 347 342 2 125 54 145 165 164 165 164 183 197 189 185 185 185 182 181 180 177 177 171 161 144 135 147 152 149 149 149 144 139 141 138 137 134 135 134 133 140 138 141 143 130 123 113 104 95 86 66 56 60 46 29 22 17 14 9 6 7 9
321 305 296 274 286 337 265 234 217 99 33 13 104 116 102 86 81 81 93 90 83 43 358 334 5 78 118 71 46 37 16 341 19 24 6 346 338 358 66 63 31 137 160 167 166 165 188 197 197 192 187 188 186 185 185 183 182 178 168 155 140 151 160 153 151 157 150 148 148 142 144 142 139 137 138 147 144 148 151 139 127 115 104 93 82 63 55 55 36 23 19 15 11 6 4 5 9
322 313 228 239 206 234 262 236 64 97 42 15 86 107 100 89 82 104 124 118 122 102 19 13 349 303 105 106 82 62 38 21 14 12 360 350 352 74 92 47 45 116 147 165 165 172 197 198 201 197 191 191 189 188 186 188 185 179 173 162 151 156 169 163 157 159 157 155 153 151 152 150 151 143 143 154 154 156 154 141 124 114 103 96 84 65 57 46 29 22 18 13 8 4 4 7 12
320 320 197 265 212 205 278 82 51 69 74 52 76 80 86 86 75 99 104 91 95 95 73 59 336 303 100 124 104 79 47 43 62 35 16 11 15 109 110 67 70 105 133 158 168 180 202 205 203 198 195 195 194 193 187 189 187 180 177 166 158 160 183 176 162 164 164 157 156 164 158 152 162 152 152 158 157 158 154 140 122 115 110 106 86 61 56 36 27 24 17 11 6 3 5 11 17
283 288 232 263 244 197 261 122 81 82 101 97 92 86 88 84 53 15 86 93 77 76 71 44 332 333 111 130 104 93 48 43 67 40 24 22 32 101 133 108 98 107 119 143 169 187 214 222 204 196 197 198 199 199 194 195 196 195 187 174 168 161 189 190 169 166 170 164 169 174 162 161 172 169 171 163 160 161 158 150 131 122 119 111 76 59 54 32 26 23 15 10 5 2 7 15 21
252 248 284 268 270 201 210 148 114 111 109 101 98 97 103 99 92 7 14 94 78 77 80 15 308 3 137 135 102 99 48 38 45 30 22 22 32 67 138 140 119 115 119 135 157 180 221 235 202 194 198 201 203 204 203 205 208 210 198 186 181 166 180 195 177 167 176 177 186 185 170 179 185 188 188 168 167 162 156 153 142 131 120 106 77 61 44 28 24 16 11 9 6 3 10 20 26
244 179 295 259 246 218 210 146 127 115 119 121 107 94 98 101 161 160 294 98 98 132 93 294 282 20 274 136 95 116 66 37 32 17 15 22 20 38 100 140 128 128 147 155 151 167 205 243 203 196 200 201 207 210 212 215 216 215 208 198 190 176 171 191 190 175 182 186 193 197 187 195 192 195 192 170 167 160 156 149 140 133 116 102 80 51 32 24 16 10 10 11 9 6 13 24 30
269 167 233 249 253 276 17 123 127 118 135 148 127 100 91 139 216 207 249 93 101 154 93 7 349 352 269 145 118 133 65 30 23 5 8 27 17 27 50 88 119 129 155 163 154 158 176 223 208 204 206 205 209 213 218 221 222 221 215 209 198 188 175 182 193 188 189 191 198 206 207 212 204 195 189 177 172 166 159 148 138 130 118 104 71 35 22 15 10 10 14 15 13 10 15 26 31
309 341 255 259 340 350 33 114 127 136 156 148 118 101 151 200 202 357 324 295 326 332 70 21 345 312 281 105 133 138 54 21 8 358 6 21 28 42 48 56 88 99 118 145 144 148 165 183 203 209 214 217 217 218 223 224 227 225 219 217 208 195 186 183 189 196 197 197 202 209 219 225 214 194 191 182 177 181 172 162 146 126 125 111 47 20 11 6 6 13 18 18 16 14 15 25 30
327 352 289 284 51 277 170 164 146 181 164 121 93 99 168 205 40 5 315 278 54 38 44 26 329 306 279 244 142 122 24 4 356 355 4 15 44 65 70 63 48 75 85 101 125 145 167 180 186 203 217 225 226 227 228 229 231 228 223 221 220 206 197 195 190 197 202 206 208 211 222 229 227 210 198 191 184 193 187 183 165 139 149 146 22 11 6 2 5 15 23 21 20 18 16 22 26
331 331 284 265 182 208 183 238 167 217 157 117 87 81 161 93 54 317 338 321 49 56 9 136 319 317 318 315 52 25 350 351 349 349 358 21 67 72 73 70 53 60 73 94 121 148 166 181 184 194 207 216 221 227 228 231 232 229 228 225 228 219 205 204 202 202 210 217 216 217 225 230 235 231 216 200 191 199 195 195 182 163 177 190 354 353 355 355 3 19 26 23 23 22 19 22 25
329 299 262 237 208 207 177 183 197 222 135 115 105 81 207 136 122 257 53 326 323 83 307 88 86 335 10 12 14 358 343 350 348 347 355 32 104 97 81 77 79 66 63 86 106 148 174 181 185 195 203 207 211 216 220 229 232 227 228 227 227 221 211 211 210 214 220 230 230 228 231 237 244 244 238 211 196 205 202 196 185 180 202 244 295 312 332 345 3 22 25 23 25 24 25 27 25
293 261 251 234 202 191 161 171 188 152 118 119 120 80 258 151 143 179 109 261 264 239 15 63 66 42 44 44 16 1 356 2 2 7 27 28 93 121 83 64 78 71 60 70 79 102 193 194 195 200 203 207 207 212 216 227 236 231 226 228 229 226 222 220 219 221 220 226 233 234 236 241 246 243 237 218 208 212 204 201 201 205 226 249 261 293 325 351 14 27 24 21 22 22 27 30 26
262 252 245 252 163 103 78 112 98 112 122 122 112 43 305 274 117 103 201 215 225 254 144 97 74 74 76 67 33 16 15 16 21 31 42 37 35 55 56 46 47 49 47 51 47 33 2 215 219 214 206 207 205 211 214 221 238 239 225 222 226 225 225 229 229 227 222 224 228 230 232 233 235 235 226 210 213 217 205 203 215 218 227 246 264 307 332 7 31 37 30 25 22 17 21 25 23
274 290 251 355 56 72 53 61 79 88 110 110 105 60 328 322 8 7 296 239 242 265 163 132 112 102 88 64 43 28 26 27 30 33 40 38 33 33 32 31 28 27 21 13 8 3 353 289 246 223 218 210 204 211 212 214 227 231 222 219 221 219 221 228 228 227 229 227 224 224 226 226 229 231 222 204 212 223 207 202 217 230 244 265 285 312 333 23 42 45 35 26 25 22 20 17 18
285 289 265 74 69 91 87 81 81 67 72 102 109 74 305 316 0 327 312 298 279 287 79 132 131 92 63 49 36 25 28 32 32 33 39 36 32 29 23 19 13 10 3 355 357 356 345 314 256 224 224 212 201 208 212 211 216 216 215 218 217 214 215 221 221 222 230 228 222 225 224 222 226 229 231 227 226 225 208 202 215 244 269 276 285 299 332 36 42 40 33 29 27 31 27 16 17
312 296 336 77 78 133 115 104 94 80 41 322 76 204 251 154 339 296 293 289 267 83 44 14 22 33 34 39 29 22 26 31 32 33 37 34 30 25 19 15 7 2 356 354 354 349 345 325 273 228 218 215 203 201 212 210 210 212 209 212 211 208 208 214 220 219 228 231 220 221 225 222 222 217 227 235 222 212 211 213 224 241 252 245 251 259 225 42 42 34 31 36 29 32 34 25 25
264 278 42 78 339 51 113 110 99 93 6 289 240 244 241 136 252 253 253 277 314 70 35 24 29 31 34 31 25 26 27 27 28 27 28 29 26 21 15 9 5 1 358 358 351 345 344 338 310 242 205 206 207 201 209 208 209 210 206 208 206 207 208 209 214 212 222 230 219 217 223 227 229 216 214 229 216 205 212 217 225 230 229 227 231 221 189 87 85 59 38 43 33 29 32 29 26
274 143 98 85 347 9 104 119 128 140 226 235 240 271 12 264 251 216 237 288 60 62 44 57 54 57 52 43 39 37 36 29 27 24 21 23 21 17 11 6 3 359 358 356 350 349 346 345 339 276 198 188 206 202 203 206 210 209 202 204 203 206 210 209 210 211 224 233 226 223 225 230 234 222 213 226 225 216 219 218 220 219 223 237 235 212 190 177 144 91 65 50 36 28 27 29 24
269 238 128 111 21 274 46 127 159 190 228 237 247 300 261 252 244 185 202 83 81 80 71 70 72 81 77 69 56 47 46 38 33 28 23 23 21 17 10 5 3 360 360 358 353 353 349 347 347 321 194 184 196 195 199 198 199 205 195 192 195 200 207 211 207 211 224 216 200 214 224 230 231 221 213 223 226 224 228 224 221 217 220 246 236 200 176 148 103 74 75 54 39 25 19 25 26
240 279 112 140 225 239 237 190 213 219 233 235 221 250 248 236 218 191 176 108 101 104 89 92 99 93 82 67 54 51 47 38 32 29 30 28 22 20 15 9 6 6 4 359 356 356 356 353 352 345 186 184 184 182 190 189 191 196 188 184 176 177 188 187 169 148 131 137 141 175 210 229 227 224 223 224 218 220 231 227 224 214 205 214 193 148 117 88 89 81 88 75 55 35 21 24 30
223 328 70 233 247 237 241 247 246 232 230 206 219 251 239 175 185 188 150 123 124 126 121 122 121 91 73 60 49 44 39 34 25 21 24 25 22 18 16 12 9 11 7 3 3 6 7 6 6 12 139 168 170 174 176 179 177 161 171 189 180 167 168 166 154 136 122 114 107 132 167 171 212 216 220 222 210 213 230 221 211 202 188 169 137 134 127 119 126 129 128 109 76 61 40 38 42
24 329 292 270 265 257 242 245 251 243 235 210 231 261 212 145 202 205 139 143 145 148 147 138 134 87 68 61 52 41 38 34 22 20 21 21 20 14 12 10 7 10 14 17 17 15 18 21 32 45 98 148 153 159 159 158 153 141 141 152 152 146 148 149 135 121 113 97 82 78 90 77 115 205 216 221 209 205 206 193 184 167 143 131 132 134 132 137 151 165 163 143 118 103 63 42 57
342 315 290 263 253 250 236 237 243 233 232 210 231 257 173 152 212 181 134 150 163 167 153 144 149 106 88 80 70 54 47 39 28 29 29 25 19 12 12 9 4 8 18 23 21 21 28 31 56 88 104 141 144 143 150 145 134 130 123 114 111 113 123 135 125 113 107 93 84 73 70 69 62 90 181 200 194 201 201 187 176 156 145 146 146 140 142 157 169 177 165 136 118 107 52 340 2
285 283 283 274 259 249 231 216 203 213 196 168 211 241 205 192 184 127 133 154 167 178 167 155 150 120 113 99 92 79 59 50 45 37 32 31 22 18 15 9 8 13 20 26 27 34 42 37 54 90 104 135 139 127 130 129 123 123 119 111 105 103 106 110 108 104 101 96 89 77 68 67 70 76 82 105 127 145 151 146 155 152 148 149 145 142 140 148 157 157 148 125 101 71 356 326 344
268 246 265 290 276 245 187 157 161 197 156 156 207 260 209 181 150 127 142 162 172 185 180 170 158 134 127 105 98 85 66 52 51 42 35 32 25 23 14 11 19 25 29 35 40 48 54 53 69 92 97 115 128 121 118 117 114 114 113 114 111 106 102 98 96 94 95 93 88 84 78 75 84 93 94 93 96 104 112 120 126 122 122 134 140 134 118 114 125 119 117 101 35 343 333 326 334
259 255 243 258 273 208 140 151 176 188 150 167 213 277 219 152 138 138 152 171 184 193 178 169 167 148 138 121 115 94 79 62 55 49 40 36 30 24 15 19 35 44 47 52 54 59 70 74 83 101 101 103 115 118 118 113 109 109 108 110 110 106 104 102 101 101 101 99 95 97 97 95 95 98 100 100 102 104 110 116 117 114 116 126 130 123 121 121 121 111 121 32 346 328 329 330 328
233 256 255 228 244 184 148 157 190 203 153 179 209 268 204 148 147 138 150 183 193 203 180 167 169 156 155 144 130 116 104 86 68 52 42 40 34 26 21 31 46 57 65 69 71 74 85 89 93 107 108 105 111 113 115 113 111 111 108 107 107 105 104 102 101 100 100 101 103 104 106 109 104 96 96 102 107 104 103 106 108 113 116 120 124 123 127 123 108 78 84 84 10 353 355 352 343
218 230 261 246 241 238 172 152 189 206 152 183 209 260 292 141 148 138 146 181 192 205 189 171 173 161 161 154 141 138 129 110 80 51 39 38 36 27 27 48 63 71 79 82 85 87 91 96 100 107 110 110 110 110 112 112 111 111 109 107 105 104 101 98 97 95 94 94 95 94 96 102 102 102 106 108 106 98 93 92 93 97 100 103 104 105 106 97 82 55 44 55 41 25 20 15 1
224 212 244 259 254 256 240 152 154 174 194 214 214 245 275 146 146 153 158 174 192 203 195 179 176 171 166 155 153 157 143 117 78 46 33 29 34 30 31 65 83 82 87 92 96 99 98 98 101 104 108 110 109 108 109 109 109 110 108 105 104 103 100 97 95 93 91 90 89 87 88 88 87 91 97 101 100 94 90 86 84 84 83 83 79 77 75 71 70 60 46 42 42 39 31 18 2
263 237 241 261 249 244 254 219 153 172 202 239 229 238 257 184 152 160 164 175 200 201 189 182 176 173 170 167 169 159 153 124 73 39 30 26 32 33 34 65 87 89 91 95 100 107 108 106 104 102 102 104 105 106 106 106 105 104 102 101 101 98 96 95 94 92 89 88 87 85 86 86 84 83 82 85 88 86 82 78 76 74 71 70 67 65 60 58 55 51 51 46 39 37 32 16 1
289 286 281 277 263 252 259 136 134 177 219 242 247 250 258 231 171 165 167 177 201 198 181 183 180 177 173 176 175 165 161 122 81 45 32 34 33 40 44 52 80 91 88 93 102 109 112 113 110 105 101 102 103 104 105 105 104 101 98 96 94 93 92 92 90 90 88 86 86 85 85 84 85 85 81 78 77 77 74 71 68 65 65 63 61 58 53 54 48 39 44 45 45 37 28 18 11
294 286 278 268 264 266 267 120 126 162 250 249 257 258 261 259 209 167 168 178 194 199 193 194 186 178 181 178 172 168 154 114 99 90 61 57 47 49 63 55 66 81 84 97 107 112 114 115 112 107 107 108 108 109 107 105 104 102 98 94 92 90 90 90 88 88 88 88 88 88 86 85 85 86 86 84 79 77 75 73 68 60 60 61 61 59 56 58 53 45 45 44 49 42 28 19 16
266 266 267 259 253 262 264 138 129 153 247 260 266 261 259 263 230 160 164 185 198 202 200 201 190 177 178 177 175 167 142 131 141 131 99 87 72 64 71 68 64 71 92 108 113 117 118 116 114 111 113 115 115 117 115 112 108 105 104 102 99 94 92 91 90 89 90 91 90 89 88 86 86 85 87 88 85 82 79 77 75 65 59 59 62 61 60 60 54 50 47 42 45 45 37 23 20
254 253 255 255 253 263 251 139 136 184 234 266 266 259 262 261 206 158 176 192 192 194 197 199 187 183 184 180 178 171 156 150 149 135 121 112 95 87 82 77 74 75 93 104 109 115 112 109 114 118 119 119 118 119 118 115 111 110 110 108 106 100 96 95 94 92 92 92 90 90 89 87 88 86 85 87 87 85 81 79 78 74 66 61 62 61 59 57 53 49 45 41 40 40 43 29 25
241 238 243 250 248 256 249 156 146 196 230 288 292 272 270 257 174 161 188 186 166 160 178 198 191 196 190 177 174 171 168 159 148 140 130 126 118 108 100 89 88 87 84 87 91 98 97 97 107 115 120 122 123 123 120 118 117 115 112 108 105 100 96 95 94 92 91 91 89 88 88 87 87 86 85 85 85 84 82 80 79 76 71 65 63 61 59 58 55 52 48 46 42 34 36 32 30
232 231 235 251 250 248 255 209 137 217 230 242 267 276 268 242 208 187 171 173 183 178 187 201 202 206 186 166 177 173 163 156 152 146 137 134 129 119 112 104 100 92 85 88 86 81 87 94 101 107 111 114 117 117 117 117 116 113 109 105 101 97 92 88 85 84 85 86 85 85 86 86 86 85 84 83 82 81 79 79 77 75 73 69 66 62 60 59 58 57 52 50 47 38 34 32 32
242 228 225 244 258 259 262 257 199 267 248 195 218 262 274 232 210 190 154 176 197 184 194 204 196 195 194 189 185 173 159 152 148 141 138 137 132 129 117 106 100 89 87 95 91 85 92 96 99 103 105 108 110 110 112 113 112 110 109 107 104 99 90 81 80 82 81 83 85 86 86 85 85 83 82 80 79 78 76 75 74 73 72 69 67 64 61 58 58 57 55 52 49 46 41 35 32
254 235 218 237 256 261 258 250 223 265 275 152 198 253 274 226 195 173 157 184 189 180 198 202 192 190 193 194 181 171 169 160 147 141 144 142 140 140 125 108 98 94 98 100 95 97 104 106 107 111 114 117 117 112 109 109 112 113 110 105 102 100 96 89 89 89 86 86 86 86 85 84 83 81 79 78 77 75 74 73 72 72 71 69 67 65 63 60 57 57 56 54 51 50 48 41 32
249 44 54 225 243 249 243 236 229 256 295 176 190 234 267 260 193 152 159 184 187 191 202 197 194 194 188 187 179 170 166 159 155 154 154 151 146 141 129 115 101 103 108 106 106 107 110 117 123 125 126 126 125 120 113 113 119 118 110 103 98 97 99 99 97 93 91 89 85 83 82 81 81 79 77 75 74 73 72 71 70 70 69 68 67 65 63 61 59 57 55 54 53 50 49 46 36
240 76 66 131 229 243 226 226 234 251 278 242 196 188 243 255 197 143 164 200 212 206 199 195 195 192 183 180 175 166 158 155 158 159 157 154 147 136 130 123 110 114 119 116 120 121 123 129 131 131 130 127 127 127 123 122 122 118 110 106 103 100 100 101 99 96 92 89 85 82 79 77 76 75 75 73 71 69 69 68 67 67 67 66 66 65 63 60 58 55 53 52 52 50 48 47 40
151 110 95 88 96 182 199 224 237 233 245 246 211 185 216 258 218 172 174 219 231 209 188 191 190 181 178 175 168 161 157 155 159 159 157 154 146 135 130 127 118 120 125 125 125 126 129 131 131 131 129 126 128 130 129 125 122 117 111 108 106 105 105 103 100 96 91 88 85 80 77 74 72 71 71 71 69 67 66 66 64 64 64 64 63 63 62 58 56 54 51 49 48 47 46 43 38
135 136 119 117 141 151 191 228 233 243 244 238 221 203 213 260 238 201 192 205 222 186 166 180 178 172 173 171 165 161 159 160 162 161 156 149 142 137 136 130 126 125 125 127 129 129 128 128 131 131 129 129 130 132 130 126 121 117 112 108 107 107 107 105 101 96 91 88 84 80 78 74 72 72 70 70 69 67 64 63 62 62 61 60 59 57 56 55 52 49 47 44 42 42 42 39 34
153 165 164 173 187 173 214 226 206 246 250 227 215 207 212 236 238 201 166 142 162 160 166 174 170 170 170 166 164 162 162 163 163 164 159 153 149 148 147 139 135 134 133 134 134 132 129 129 134 133 131 133 133 132 131 126 120 116 112 108 106 106 105 103 99 96 92 89 86 84 80 75 71 71 69 67 65 64 62 60 59 58 56 55 55 53 51 51 49 45 42 39 36 34 34 33 28
192 189 184 199 210 196 225 225 209 238 245 153 141 177 216 238 239 220 161 136 146 126 149 170 165 166 166 163 163 160 162 165 165 168 164 162 162 160 158 150 146 145 143 141 137 135 132 132 137 134 133 136 134 131 129 124 119 115 115 112 110 109 106 102 98 95 93 90 88 85 81 77 72 69 67 64 62 61 59 58 57 55 54 52 50 49 47 45 45 42 37 35 33 29 27 28 24
192 190 185 197 206 215 231 226 224 236 227 123 139 166 234 247 235 226 172 118 115 86 70 154 162 162 162 160 160 158 162 166 166 169 167 168 168 165 163 157 153 152 149 147 143 141 138 136 139 137 134 136 134 131 128 124 120 119 119 117 115 114 109 103 100 99 97 94 92 89 84 82 77 73 70 65 63 60 58 56 54 51 50 48 44 43 42 40 40 40 35 31 30 26 24 24 20
194 196 195 206 210 225 237 229 231 229 150 122 158 172 216 208 188 206 117 97 98 95 75 113 149 155 153 153 156 157 163 167 169 170 171 173 170 166 164 159 157 157 155 153 149 146 143 142 144 141 137 136 135 133 131 128 126 124 123 121 118 117 112 107 105 104 102 99 97 94 90 86 81 75 70 65 60 57 55 52 49 46 43 41 39 37 37 35 36 36 32 29 26 21 20 21 17
194 196 209 220 227 244 258 265 240 235 117 177 186 222 242 185 100 79 109 119 120 116 116 130 145 149 149 155 161 163 168 171 171 172 173 173 170 168 165 161 160 159 158 159 155 153 150 146 146 142 139 138 137 136 134 132 131 129 126 124 122 119 115 112 110 109 105 101 97 93 89 84 77 70 63 58 54 50 48 45 42 38 35 33 31 30 30 29 30 31 27 24 23 19 17 16 12
172 192 208 204 6 310 263 212 126 257 269 222 171 221 258 186 176 141 134 149 143 136 142 149 152 153 156 164 167 170 173 172 173 174 173 173 172 170 167 164 163 163 165 165 162 159 155 150 148 145 142 140 140 139 138 136 134 131 127 125 122 119 117 114 112 109 104 99 94 89 84 79 73 66 59 55 51 47 43 40 36 30 27 25 22 22 22 22 26 25 20 18 15 14 15 12 5
155 193 193 125 36 319 272 248 222 215 251 239 172 208 215 196 202 147 145 175 172 164 158 156 162 166 172 177 175 175 175 172 172 172 174 175 174 172 169 166 166 167 168 167 164 161 158 156 153 150 147 146 146 144 141 138 135 131 128 127 124 122 120 116 113 110 105 100 95 90 86 79 72 64 58 53 47 43 37 33 31 24 21 19 17 17 16 17 21 20 18 15 8 7 10 8 1
218 264 181 141 221 226 205 232 244 217 235 250 203 208 214 212 199 159 174 192 186 175 165 168 178 181 186 184 178 177 173 171 173 175 179 179 176 174 170 167 168 170 170 168 165 162 160 160 157 153 151 151 151 148 145 142 140 136 133 132 130 127 124 120 117 113 108 104 100 96 89 81 73 64 57 52 45 40 33 28 25 19 16 13 12 12 10 13 16 15 15 9 1 3 5 2 357
275 298 220 193 245 232 207 213 237 225 232 250 224 200 215 221 193 172 183 192 181 171 172 185 190 187 188 184 179 178 177 177 178 179 182 180 177 174 169 169 169 169 170 169 168 166 163 162 159 157 155 155 154 151 149 148 146 143 140 138 135 132 129 125 121 117 112 108 103 96 88 79 74 66 58 53 46 39 31 25 19 13 11 7 6 6 6 10 12 9 7 1 357 360 360 356 350
195 208 204 195 188 239 256 231 227 236 239 244 250 248 231 202 177 175 184 189 178 168 177 193 193 189 189 186 183 179 178 181 180 181 182 177 173 170 168 170 169 168 170 170 171 170 166 165 164 162 160 159 158 155 155 154 151 148 146 143 141 138 135 131 126 122 116 111 105 98 91 83 77 68 59 51 43 35 25 19 13 8 5 3 3 3 4 7 7 4 359 354 354 354 353 349 344
201 204 203 202 191 181 223 223 203 214 249 245 264 271 257 85 54 153 169 178 173 170 179 186 188 189 188 188 186 181 180 183 182 180 177 171 170 168 168 169 167 169 172 173 174 174 171 170 168 166 165 164 163 161 161 159 156 153 152 149 147 144 141 137 132 128 122 118 113 105 98 89 82 70 58 46 35 26 17 11 6 3 1 359 359 359 360 1 360 358 355 350 348 347 345 342 339
Height
792 792 791 791 789 790 788 789 801 797 793 809 811 811 815 809 808 808 810 809 810 810 807 808 807 808 810 811 811 809 807 809 813 817 825 819 811 814 813 814 814 815 817 818 820 821 823 824 825 827 828 829 830 831 832 833 834 835 836 837 837 838 839 840 840 841 841 841 842 842 842 843 843 843 843 843 843 843 843 844 844 844 844 845 845 845 845 845 845 845 845 845 845 845 845 844 844
793 792 791 791 789 792 790 789 805 802 801 815 812 812 814 808 809 811 811 811 811 811 807 807 807 808 809 808 807 808 809 806 806 810 813 812 812 814 813 815 815 816 818 819 821 822 824 825 825 827 828 830 831 832 833 833 834 835 836 837 838 838 839 840 841 841 842 842 843 843 844 843 844 844 844 844 844 845 845 845 845 845 846 846 846 846 846 846 846 846 846 846 846 846 845 845 845
793 792 791 792 789 789 790 793 804 804 806 818 818 813 810 809 812 812 811 811 810 809 808 808 809 809 808 809 808 809 811 806 805 806 807 811 813 814 815 815 815 817 818 819 821 822 824 825 826 827 828 830 831 832 833 834 834 835 837 837 838 839 839 840 841 842 842 843 843 844 844 844 845 845 845 845 845 846 846 846 846 846 847 847 847 847 847 847 847 847 847 847 846 846 846 845 845
792 792 791 791 791 792 794 800 801 800 807 814 820 816 809 812 813 812 811 810 810 809 810 809 810 809 808 813 809 808 811 808 808 808 809 814 815 816 816 815 817 818 819 820 821 823 824 825 826 828 829 830 831 832 833 834 835 836 837 838 839 839 840 841 841 842 843 843 844 844 845 845 846 846 846 846 847 847 847 847 847 847 848 847 848 848 848 848 848 848 847 847 846 846 846 845 845
792 793 791 790 795 796 797 802 799 802 810 808 816 816 810 811 811 812 811 810 810 810 811 810 812 808 807 811 808 812 815 810 810 811 813 816 816 816 815 816 818 819 820 821 822 824 824 825 826 828 829 830 831 833 833 834 836 836 837 839 839 840 841 841 842 843 843 844 844 845 845 846 846 847 847 847 848 847 848 847 848 848 848 849 849 849 849 849 849 849 848 847 847 846 846 845 845
792 793 791 790 793 795 800 805 803 808 812 804 811 815 810 811 811 813 811 811 811 811 811 810 813 810 810 811 809 815 817 813 813 815 817 817 816 816 816 818 819 820 821 822 824 824 824 825 827 828 829 831 832 833 834 835 836 837 838 839 840 841 841 842 843 843 844 845 845 846 846 847 847 847 848 848 848 848 848 848 848 849 849 850 850 850 850 850 850 849 849 848 847 846 846 845 844
793 794 792 794 794 795 804 806 803 810 812 805 809 812 811 812 812 812 812 813 813 811 811 811 810 812 815 811 813 817 817 817 816 817 818 817 816 816 817 819 820 821 822 823 825 825 825 826 827 829 830 831 832 833 834 835 836 837 838 839 840 841 842 842 843 844 845 845 846 846 847 847 847 848 848 848 849 849 849 849 850 850 850 851 851 851 851 851 850 850 849 848 847 846 846 845 845
794 794 793 800 802 801 806 805 806 810 812 808 808 811 812 813 812 812 812 813 815 813 811 811 809 815 816 810 816 819 817 818 818 820 819 817 817 816 818 819 820 821 822 824 825 825 825 826 828 829 830 831 832 833 834 835 836 837 838 839 840 841 842 843 843 844 845 846 846 847 847 847 848 848 848 849 849 850 850 850 851 851 851 851 852 852 851 851 851 850 849 848 848 847 846 845 845
793 795 796 802 805 806 807 808 811 811 812 811 810 813 813 813 813 813 813 813 814 813 813 811 810 816 815 811 818 817 817 820 819 820 818 818 817 817 818 818 820 821 822 824 825 826 825 827 828 829 830 831 832 833 834 835 836 837 838 839 840 841 842 843 843 844 845 846 847 847 847 848 848 848 849 849 849 850 850 851 851 852 852 852 852 852 852 851 851 851 850 849 848 847 846 846 845
793 795 799 803 805 810 811 810 812 812 812 812 811 813 813 813 813 813 813 814 814 814 814 812 811 814 814 814 818 817 819 820 819 820 819 819 817 818 819 818 820 821 823 823 825 826 826 827 828 829 830 831 832 833 834 835 836 836 837 838 839 841 842 842 843 845 845 846 847 847 848 848 849 849 849 849 849 850 850 851 851 852 852 852 852 852 852 852 852 851 850 849 848 848 847 846 846
798 796 799 807 809 812 811 810 813 813 812 812 813 813 813 813 814 814 813 813 814 814 814 813 814 814 813 814 818 819 820 820 819 820 819 819 819 818 818 819 820 820 822 823 824 826 826 827 828 829 830 831 832 833 834 835 836 836 837 838 839 840 841 842 843 844 845 846 846 847 848 848 849 849 849 849 850 850 851 851 851 852 852 852 852 852 852 852 852 851 851 850 849 848 847 847 846
803 800 801 810 810 808 808 810 813 815 814 813 815 814 813 814 815 815 813 814 813 813 814 815 815 815 815 815 816 817 818 820 820 820 820 820 820 819 819 819 820 820 821 822 824 825 826 827 828 829 830 831 832 833 834 835 836 836 837 838 839 840 841 842 842 843 844 845 846 847 847 848 849 849 849 850 850 851 851 852 852 852 852 852 852 853 853 853 852 852 851 850 849 848 848 847 847
803 803 804 810 809 808 811 812 814 817 816 814 815 815 814 814 815 814 813 814 813 815 816 814 813 815 817 814 813 814 817 821 821 821 820 820 821 820 821 820 820 820 820 822 824 825 826 828 828 829 830 831 832 833 834 835 836 836 837 838 839 840 841 842 842 843 844 845 846 846 847 848 848 849 849 850 850 851 851 852 852 853 853 853 853 853 853 853 853 852 852 851 850 849 849 848 848
803 802 805 811 812 811 812 814 815 818 817 814 815 815 814 815 814 813 814 815 814 816 816 813 812 816 818 814 814 815 819 822 821 821 820 821 821 821 821 821 821 820 821 822 824 825 826 827 829 829 830 831 832 833 834 835 835 836 837 838 839 840 841 842 843 844 844 845 845 846 846 847 848 848 849 849 850 850 851 851 852 853 853 853 853 853 853 853 853 853 852 851 851 850 849 849 849
803 802 805 811 814 813 813 814 814 816 815 814 816 815 814 815 814 815 815 817 816 813 813 813 813 818 819 817 819 820 821 822 821 821 821 821 821 821 822 821 822 821 822 823 824 825 826 827 828 829 830 830 831 832 833 834 835 836 837 838 839 840 841 842 843 844 844 845 845 846 846 846 847 848 848 849 849 850 851 851 852 852 852 853 853 853 853 853 853 853 853 852 852 851 850 850 850
803 804 807 811 814 815 815 814 814 815 815 815 816 815 816 815 814 816 815 816 816 812 813 815 814 817 818 820 824 824 823 822 821 821 821 821 821 822 822 822 823 823 823 824 824 825 825 826 827 828 829 830 831 832 833 833 834 835 836 838 839 840 841 842 843 844 845 845 846 846 847 847 847 848 848 849 849 850 850 851 851 852 852 853 853 853 853 853 853 853 853 852 852 852 851 851 851
804 807 811 811 812 814 813 813 814 816 815 816 816 815 817 816 814 814 814 815 816 813 813 816 815 818 820 823 825 825 824 823 822 822 821 822 821 822 822 823 824 823 824 824 825 825 825 826 827 828 828 830 831 831 832 833 833 834 835 836 838 839 840 841 842 843 844 845 846 846 847 847 848 848 848 849 849 850 851 851 851 852 853 853 853 853 853 853 853 852 852 852 852 852 852 852 852
806 808 811 811 810 812 811 810 811 812 814 816 817 817 817 817 815 813 814 816 815 813 814 817 819 821 823 825 826 825 825 824 823 823 822 823 822 822 823 823 824 824 825 825 825 825 826 826 826 827 828 829 830 831 832 832 832 833 834 835 837 838 839 840 841 842 843 844 845 846 847 847 848 848 848 849 849 850 851 852 852 852 853 853 854 854 854 853 853 853 852 852 852 852 852 852 852
808 808 809 811 811 811 809 809 810 811 814 816 816 818 818 817 816 814 816 816 814 814 814 817 821 823 824 825 826 826 825 825 825 824 824 824 824 823 823 824 824 825 825 825 825 825 825 826 826 827 828 828 829 830 831 832 832 832 834 835 836 837 838 839 840 842 842 843 844 845 846 847 848 848 848 848 849 850 851 852 853 853 854 854 854 854 855 855 854 854 853 853 852 852 852 852 852
808 809 810 811 811 811 810 810 812 813 814 816 817 819 819 817 816 816 818 817 814 815 817 817 820 823 824 826 826 827 826 826 826 826 826 825 825 825 825 825 825 825 825 825 825 825 824 824 825 826 827 828 828 830 831 831 832 833 833 834 835 836 837 838 839 841 841 842 843 844 845 846 847 848 848 848 849 850 851 852 853 853 854 854 855 855 855 855 855 855 855 855 854 853 853 853 853
808 809 811 811 810 812 812 811 813 815 816 817 818 820 819 817 817 817 819 819 815 817 822 822 823 824 826 827 827 828 828 827 828 828 827 827 827 826 826 826 826 826 825 825 825 825 824 824 824 824 826 827 828 829 830 831 832 833 833 834 834 835 836 837 838 839 840 841 842 843 844 845 846 847 847 848 849 850 850 851 852 853 853 854 854 855 855 855 855 856 856 856 856 856 855 854 854
810 808 810 811 811 813 813 812 815 817 817 819 819 820 819 817 818 818 819 820 819 823 827 826 827 828 828 829 829 829 829 829 829 829 828 828 828 828 828 827 827 826 825 825 825 824 824 823 823 823 824 826 827 828 830 831 831 832 833 834 834 835 836 836 837 838 839 840 841 842 843 844 844 845 847 847 848 849 850 851 851 852 853 853 854 855 855 855 856 857 857 858 858 857 856 856 855
812 810 809 810 811 813 813 814 817 818 819 820 819 818 818 819 819 817 818 821 824 828 828 828 829 829 830 830 830 830 830 830 830 830 830 829 829 829 829 828 827 827 826 825 825 824 823 823 823 822 823 825 827 828 829 830 831 832 833 833 834 835 835 836 837 837 838 839 840 841 842 843 843 844 846 847 847 848 849 850 850 851 853 853 853 855 855 855 856 856 857 857 857 857 856 856 855
813 811 811 813 813 813 813 815 818 818 819 818 817 819 819 819 818 817 819 823 827 829 829 830 830 830 830 830 831 831 831 831 831 832 831 831 831 830 830 829 829 828 827 826 825 824 823 823 823 823 823 825 827 828 829 830 831 832 832 833 834 835 836 837 837 838 838 838 839 840 841 842 842 843 844 845 846 847 848 848 849 850 851 852 852 854 855 855 856 856 857 857 857 857 857 857 856
812 812 811 813 814 813 812 814 816 817 817 816 817 820 817 815 816 818 820 824 827 828 829 830 830 830 830 831 831 832 832 832 832 832 832 832 832 832 831 830 830 829 828 827 825 825 824 823 823 824 824 825 826 827 829 830 831 831 832 832 833 834 835 836 836 837 838 838 839 840 841 841 842 842 844 844 845 846 847 847 848 849 850 850 851 852 853 854 855 856 857 857 857 857 857 857 857
811 812 813 814 813 811 812 813 813 814 814 815 819 817 813 813 816 819 822 825 827 828 830 830 830 830 831 832 832 832 833 833 833 833 833 833 833 832 832 831 830 829 829 827 826 825 824 823 824 824 825 826 827 828 829 830 830 830 830 831 832 833 834 835 836 837 837 838 840 840 840 841 841 842 843 843 844 845 846 846 847 848 849 850 851 851 852 853 854 855 856 856 856 856 856 856 856
812 813 813 813 812 810 811 812 810 811 813 814 817 815 812 815 817 819 822 825 827 828 829 830 830 831 832 832 833 834 834 834 835 835 834 834 834 833 833 832 831 830 829 828 827 825 824 824 824 825 825 826 827 827 828 828 829 829 829 831 832 833 834 835 836 837 838 839 840 840 841 841 841 842 842 843 844 845 845 846 847 848 849 850 850 851 852 853 853 854 855 855 855 855 855 855 855
814 815 815 812 810 809 809 810 810 811 813 813 814 814 813 818 818 817 821 824 826 826 828 829 830 831 832 833 834 835 835 836 836 836 836 836 835 835 834 833 832 831 830 829 828 826 825 825 824 825 826 826 826 826 827 827 828 829 830 832 833 834 835 836 837 838 839 840 840 841 841 842 842 842 843 843 843 844 846 846 847 848 848 850 850 851 852 852 853 854 854 854 855 855 855 855 855
815 816 816 811 807 807 805 806 810 811 813 812 813 817 816 816 817 817 822 824 825 826 827 828 829 831 832 833 834 835 836 837 837 837 837 837 836 836 835 834 833 832 831 829 829 827 826 826 826 825 825 825 825 826 827 828 829 830 832 833 834 835 836 837 838 839 840 841 842 842 842 842 843 843 844 844 844 845 846 846 847 848 849 850 851 852 852 853 854 854 854 854 855 855 856 855 855
816 815 816 815 809 806 803 806 811 811 813 811 814 819 812 809 815 818 822 823 824 825 825 827 829 830 832 833 834 835 837 837 837 838 837 837 837 837 836 835 834 832 832 830 830 829 828 827 827 826 826 826 826 827 828 829 830 831 833 834 836 837 837 838 839 840 841 842 842 843 843 844 844 844 844 845 845 845 846 847 848 849 850 850 851 852 853 853 854 855 855 855 855 855 855 855 855
815 814 815 816 815 810 804 807 809 811 813 810 816 820 809 808 817 819 821 822 823 823 823 826 828 830 831 832 834 834 836 837 837 838 838 838 838 837 837 835 834 833 832 831 831 830 829 828 828 827 828 828 828 829 830 831 831 832 834 835 836 837 838 839 840 841 842 842 843 843 844 845 845 845 846 846 846 847 847 847 848 849 850 851 852 852 853 853 854 855 855 855 855 855 855 855 855
813 820 817 811 814 811 805 807 806 809 812 809 816 818 807 810 817 818 821 822 822 821 822 826 828 829 831 831 833 834 836 837 838 838 838 839 838 838 837 836 835 834 833 833 832 832 831 830 829 829 829 830 830 830 831 832 832 833 835 836 837 838 839 840 841 842 843 843 844 844 845 845 845 846 847 847 847 848 848 848 849 850 851 851 851 852 853 853 854 855 855 855 855 855 855 855 855
811 819 819 809 810 809 805 809 807 806 810 809 813 813 805 809 815 818 821 820 821 821 821 825 827 829 830 831 832 833 835 836 837 838 839 839 839 838 838 836 836 835 834 834 833 833 832 831 831 831 831 831 832 832 833 833 834 835 836 838 839 840 841 841 843 844 844 845 845 846 846 846 847 847 847 848 849 849 850 850 851 852 852 852 852 853 853 853 854 855 855 855 855 856 856 856 856
811 814 816 809 806 807 807 810 809 807 810 809 809 810 806 807 813 818 819 819 820 819 821 824 826 828 830 831 832 833 834 835 837 839 839 840 839 839 838 837 836 836 836 835 835 834 834 833 833 833 833 833 834 834 835 835 836 837 838 839 840 841 842 843 845 846 846 847 848 848 849 849 849 849 849 850 850 851 852 852 853 854 854 854 854 854 854 855 855 856 856 856 856 856 857 856 856
807 809 813 810 805 807 807 807 807 806 810 810 808 810 806 804 811 815 817 819 818 817 820 823 825 828 830 831 832 833 834 836 838 839 840 840 840 840 839 838 837 837 837 836 836 836 835 835 834 835 836 835 836 836 837 837 838 839 840 841 842 843 844 846 847 847 848 849 850 851 851 851 851 852 852 852 852 853 853 854 855 855 856 856 856 856 856 856 857 857 857 857 857 857 857 857 856
804 805 810 811 808 806 802 803 807 806 810 811 808 809 804 802 808 814 817 818 817 817 820 823 825 827 829 830 831 833 834 836 839 840 840 840 840 840 840 839 839 838 838 838 837 837 836 836 836 836 838 838 838 838 839 839 840 841 842 843 844 846 847 848 848 849 850 851 852 853 853 853 853 853 854 854 854 855 855 856 857 857 858 858 858 858 858 858 858 858 858 858 858 858 858 858 856
806 808 811 812 812 808 800 804 809 807 812 811 805 806 803 799 803 810 815 817 817 818 820 822 824 826 828 829 831 833 835 837 839 840 841 841 841 841 840 840 840 839 839 839 839 838 838 838 838 838 839 840 840 840 841 841 842 843 844 845 846 848 849 849 851 852 853 853 854 854 855 855 855 855 856 856 856 857 857 858 858 859 859 859 859 860 860 860 859 859 860 859 859 859 859 858 857
809 812 813 812 813 808 800 805 811 809 815 813 804 806 806 799 800 808 814 816 816 816 817 819 821 825 827 829 831 833 835 837 839 840 840 841 841 841 841 841 841 841 840 840 840 840 840 839 839 840 840 841 841 841 842 842 844 845 845 847 848 850 851 852 853 854 855 856 856 856 857 857 857 857 858 858 858 859 859 859 860 860 861 861 861 862 862 861 861 860 860 861 861 861 861 860 858
811 813 816 815 811 806 802 807 813 812 816 813 805 808 806 797 799 809 812 811 812 814 816 819 821 824 826 828 830 832 835 836 837 839 840 841 841 841 842 842 842 842 842 842 841 841 841 841 841 841 841 842 842 843 843 844 845 846 847 848 850 851 853 854 855 857 857 858 858 858 859 859 859 860 860 860 860 860 861 861 861 862 862 863 863 863 863 862 862 862 862 862 862 862 862 862 861
812 813 816 816 809 810 811 812 815 814 815 813 810 812 806 797 803 810 811 810 814 819 822 822 824 824 825 827 829 831 833 835 836 838 839 840 841 842 842 843 842 843 843 843 843 843 843 843 843 843 843 843 844 844 845 845 846 848 849 850 852 853 855 857 857 859 859 860 860 861 861 862 862 862 862 862 863 863 863 863 863 864 864 864 865 865 864 864 864 864 864 864 864 864 864 864 863
810 810 814 812 807 809 810 811 815 814 814 814 815 818 806 793 799 806 811 816 818 822 824 825 826 826 827 829 830 831 831 833 835 837 839 840 841 842 842 843 843 843 844 843 844 844 844 845 845 845 845 845 846 847 847 848 849 850 851 852 854 855 857 859 860 861 862 862 863 864 864 864 865 865 865 865 865 865 865 866 866 866 866 866 866 866 866 866 866 866 866 866 866 866 867 867 866
809 805 806 808 806 807 807 810 818 820 817 813 815 822 805 782 785 796 810 819 818 820 822 822 824 825 828 829 829 832 833 834 835 836 838 840 840 842 843 843 844 844 844 844 844 845 846 846 846 847 847 848 849 850 851 851 852 853 853 854 856 857 859 861 862 863 864 865 866 866 867 867 867 867 867 867 867 867 868 868 868 868 868 868 868 868 868 868 868 868 868 868 868 868 869 869 868
812 806 803 805 807 809 810 813 822 823 817 812 815 821 809 787 782 790 805 813 813 818 820 818 820 823 825 826 826 830 832 833 835 836 838 839 840 842 843 843 844 844 844 845 845 846 846 847 847 848 849 850 851 852 853 853 854 854 855 856 857 858 859 862 864 865 866 867 868 868 869 869 869 869 869 869 870 870 870 870 870 870 870 870 870 870 870 870 870 870 870 870 870 870 870 870 870
814 812 809 808 809 812 813 816 822 818 811 815 816 817 817 803 789 790 801 806 808 814 816 814 815 818 821 823 825 827 829 832 834 836 837 839 840 841 842 843 844 844 845 845 846 846 847 847 848 849 850 851 852 852 853 854 855 855 856 857 858 860 861 863 866 866 867 869 869 870 870 871 871 871 871 872 872 872 872 872 872 872 872 872 872 872 872 872 872 872 872 872 872 872 871 872 872
813 815 813 810 811 812 813 816 820 816 817 822 813 813 822 809 790 793 799 800 801 803 807 810 810 813 817 820 823 826 828 831 832 835 837 838 840 841 842 843 844 844 845 845 846 846 847 848 848 849 850 851 852 853 854 854 855 856 857 858 859 862 863 865 867 868 869 870 871 871 872 873 873 873 873 874 874 874 874 874 874 874 874 874 874 874 874 874 873 873 873 873 873 873 873 873 873
812 815 813 813 815 814 816 819 817 818 826 825 809 808 819 806 785 789 800 797 789 788 796 802 803 809 815 817 821 825 827 831 832 834 836 837 839 840 841 842 843 844 845 846 846 847 848 848 849 850 851 852 853 853 854 855 856 857 859 860 861 863 865 866 868 869 870 871 872 873 874 874 875 875 875 875 876 876 876 876 876 876 875 875 875 875 875 875 875 874 874 874 874 874 874 874 874
811 813 813 817 818 816 818 816 815 824 826 816 803 799 810 809 785 775 785 783 773 777 789 796 799 806 812 815 819 823 826 830 832 834 836 837 838 840 841 842 843 844 845 846 846 847 848 849 850 851 852 853 853 854 855 856 857 858 860 862 862 864 866 867 869 870 871 872 873 874 875 876 876 877 877 877 877 878 878 878 878 878 877 877 877 876 876 876 876 876 875 875 875 875 875 875 875
812 812 815 821 821 821 823 820 823 832 822 807 801 797 804 810 788 766 769 772 768 774 783 788 795 803 808 812 817 821 825 828 831 834 835 837 838 839 841 842 843 845 845 846 847 848 849 850 851 851 852 854 854 855 856 857 858 860 861 863 864 865 866 868 869 871 872 873 874 876 876 877 878 878 878 878 879 879 879 879 879 879 879 878 878 878 878 877 877 877 876 876 876 875 875 875 875
814 812 817 826 826 829 830 825 828 827 815 808 809 807 807 800 780 765 766 771 772 776 779 783 791 799 804 810 815 819 823 826 830 833 834 836 837 838 840 841 843 845 845 847 848 848 850 850 851 852 853 854 855 856 857 858 859 860 862 863 864 866 867 868 870 871 873 874 875 876 877 878 879 879 879 879 880 880 880 880 880 880 880 880 880 879 879 878 878 877 877 877 876 876 876 876 876
813 810 815 823 825 832 833 823 819 815 811 812 812 814 811 793 772 764 768 776 780 782 784 784 788 796 801 807 813 817 821 825 828 831 833 834 836 838 839 841 843 844 845 847 848 849 850 851 852 852 853 855 856 857 858 859 860 861 862 863 864 866 867 869 870 871 873 874 876 877 878 879 879 880 880 881 881 881 881 881 881 881 881 881 881 881 880 880 879 878 878 877 877 877 876 876 876
807 800 803 810 809 814 817 810 804 803 811 819 820 813 800 785 778 775 779 787 789 790 792 789 789 795 801 806 812 816 820 824 826 829 831 833 834 837 838 840 842 843 845 846 848 849 850 851 852 852 853 855 856 857 858 859 860 861 862 863 864 866 867 869 870 872 873 875 876 877 878 879 880 881 881 881 882 882 882 882 882 882 882 882 882 881 881 880 879 879 878 878 877 877 876 876 876
804 796 800 805 797 795 805 810 805 803 809 814 818 806 779 772 781 785 789 791 792 795 796 793 793 795 801 807 811 815 818 821 824 827 829 831 833 835 837 838 840 842 844 846 847 848 850 851 852 853 854 855 856 858 859 859 860 861 862 863 865 866 868 869 871 872 874 875 876 878 879 880 881 881 881 882 882 882 882 882 882 882 882 882 882 882 881 880 879 879 878 878 877 877 876 876 876
799 801 802 798 793 793 805 816 814 812 806 795 799 797 777 772 780 782 787 788 789 796 797 795 795 797 802 806 809 813 815 818 822 824 827 829 831 833 835 837 838 840 843 844 846 848 849 850 852 853 854 855 856 857 858 859 860 861 862 864 865 866 868 869 871 873 874 875 877 878 879 880 881 882 882 882 883 883 883 883 883 883 883 882 882 881 881 880 879 878 878 877 877 876 876 876 875
796 801 796 792 798 800 801 806 806 808 803 786 785 788 779 777 779 779 784 785 786 791 794 796 797 799 802 804 806 810 812 816 820 822 825 827 829 831 833 835 837 839 841 843 846 848 849 851 851 852 853 854 856 857 858 859 860 861 863 864 865 867 868 870 871 873 874 875 877 878 880 881 881 882 882 883 883 883 883 883 883 883 882 882 882 881 880 880 879 878 878 877 877 876 876 875 875
795 796 789 790 802 802 799 804 802 801 800 786 779 781 774 769 770 772 776 776 778 786 792 795 796 797 799 800 804 808 810 814 817 819 822 824 826 829 831 833 835 838 840 843 845 847 848 850 851 852 853 854 855 856 858 859 860 861 862 864 865 867 868 870 871 873 874 875 877 878 879 880 881 882 882 883 883 883 883 883 883 883 882 882 881 881 880 879 879 878 878 877 877 876 875 874 874
799 797 789 789 793 791 789 791 788 791 794 785 781 784 772 756 752 758 762 762 767 779 789 791 790 792 793 795 799 804 807 810 813 816 818 820 823 826 828 831 833 836 839 841 844 846 847 849 850 852 853 853 855 856 857 858 859 860 862 863 865 866 868 869 871 872 873 875 876 877 879 880 881 882 882 882 883 883 883 883 882 882 882 881 881 880 879 878 878 877 877 876 876 875 874 873 873
796 796 792 789 790 789 788 782 777 782 787 781 780 779 762 746 743 747 750 752 759 772 781 783 784 787 789 791 795 799 803 806 809 812 814 817 821 824 827 830 832 835 838 840 843 845 846 848 849 850 851 852 854 855 856 857 858 860 861 863 864 866 867 869 870 871 873 874 876 877 878 879 880 881 882 882 882 882 882 882 882 881 881 880 880 879 878 877 877 876 876 875 874 873 873 872 871
784 785 782 781 783 788 792 787 779 781 782 778 779 775 758 750 751 748 747 749 754 764 773 777 780 782 785 789 791 795 800 802 805 809 812 815 818 821 825 827 830 834 836 839 841 843 845 846 848 849 850 851 853 854 855 856 858 859 861 862 864 865 867 868 869 871 872 874 875 876 877 878 879 880 880 880 880 881 881 881 880 880 880 879 878 878 877 876 876 875 875 874 873 872 872 871 870